Location: B?jaj?g
(11.7167°N, 92.6667°E)
Time: 12:18:54
(UTC+00:00)

Cosmos 1500 - Pass Details

Date: 18 September 2020
Orbit: 498 x 520 km, 82.5° (Epoch: 25 October)

Event Time Altitude Azimuth Distance (km) Brightness Sun altitude
Rises 22:20:03 0° 350° (N) 2,617 6.7 -20.0°
Reaches altitude 10° 22:22:12 10° 347° (NNW) 1,728 5.8 -19.5°
Maximum altitude 22:25:55 60° 267° (W) 585 3.1 -18.6°
Drops below altitude 10° 22:29:38 10° 186° (S) 1,714 5.7 -17.7°
Sets 22:31:45 0° 183° (S) 2,595 6.7 -17.2°
